Location: San Gennaro Vesuviano
(40.8833°N, 14.5333°E)
Time: 21:03:55
(UTC+00:00)

Cosmos 1953 Rocket - Pass Details

Date: 22 April 2021
Orbit: 603 x 636 km, 82.5° (Epoch: 10 May)

Event Time Altitude Azimuth Distance (km) Brightness Sun altitude
Rises 18:29:51 0° 348° (NNW) 2,879 7.5 -8.0°
Reaches altitude 10° 18:32:06 10° 345° (NNW) 1,966 6.7 -8.4°
Maximum altitude 18:36:23 62° 266° (W) 683 4.1 -9.2°
Drops below altitude 10° 18:40:37 10° 185° (S) 1,942 5.9 -9.9°
Sets 18:42:50 0° 182° (S) 2,840 6.7 -10.3°
